Weather Roundup
Issued by NWS

Home | Current Version | Previous Version | Text Only | Print | Product List | Glossary On
Versions: 1 2 3 4 5 6 7 8 9 10 11 12 13 14 15 16 17 18 19 20 21 22 23 24 25 26 27 28 29 30 31 32 33 34 35 36 37 38 39 40 41 42 43 44 45 46 47 48 49 50
000
NZUS93 KARX 030259
HRRWXR

CURRENT HOURLY OBSERVATIONS ACROSS
MUCH OF THE UPPER MISSISSIPPI VALLEY
NATIONAL WEATHER SERVICE LA CROSSE WI
1000 PM CDT MON MAY 02 2016


...SOUTHEAST MINNESOTA...


CITY           SKY/WX    TMP DP  RH WIND       PRES   REMARKS
ROCHESTER      CLOUDY    52  43  71 SW7       30.04R
ROCHESTER/MAYO MOCLDY    57  37  46 S6        30.03S
WINONA         CLOUDY    54  43  66 CALM      30.02S
AUSTIN         PTCLDY    52  39  62 CALM      30.03S
ALBERT LEA     MOCLDY    52  45  76 CALM      30.04R
DODGE CENTER   MOCLDY    50  39  66 SW5       30.03S
PRESTON        PTCLDY    53  37  56 SW5       30.04S
OWATONNA       PTCLDY    52  37  58 S5        30.03R
FARIBAULT      PTCLDY    50  39  66 CALM      30.03R
$$

...ELSEWHERE IN MINNESOTA...


CITY           SKY/WX    TMP DP  RH WIND       PRES   REMARKS
MINNEAPOLIS    CLEAR     59  30  33 CALM      30.01R
INTNL FALLS    CLOUDY    47  34  60 CALM      29.92F
DULUTH         PTCLDY    50  31  48 SE3       29.97S
RED WING       PTCLDY    52  39  62 N3        30.00S
REDWOOD FALLS  MOCLDY    54  36  50 S8        30.01R
MANKATO        CLEAR     57  36  44 SW7       30.03R
WORTHINGTON    CLEAR     53  41  63 S5        30.04R
FAIRMONT       CLEAR     54  39  58 S3        30.03R
$$

...SOUTHWEST WISCONSIN...


CITY           SKY/WX    TMP DP  RH WIND       PRES   REMARKS
LA CROSSE      CLOUDY    57  42  57 SE3       30.02R
PRAIRIE DU CHI CLOUDY    51  43  75 CALM      30.03R
BOSCOBEL       MOCLDY    51  41  68 CALM      30.03R
LONE ROCK      NOT AVBL
PLATTEVILLE    CLEAR     53  38  57 CALM      30.02S
FORT MC COY    CLOUDY    51  41  69 CALM      30.03S
MAUSTON-NEW LI NOT AVBL
VIROQUA        CLOUDY    53  37  53 CALM      30.03S
WIS DELLS      CLOUDY    55  34  44 CALM      30.02R
$$

...ELSEWHERE IN WISCONSIN...


CITY           SKY/WX    TMP DP  RH WIND       PRES   REMARKS
MILWAUKEE      CLEAR     45  33  63 CALM      30.02F
MADISON        CLEAR     48  36  63 CALM      30.01S
GREEN BAY      CLEAR     52  37  56 SW5       30.00S
EAU CLAIRE     NOT AVBL
BLACK RVR FLS  CLOUDY    49  39  67 CALM      30.01S
MEDFORD        CLEAR     49  37  61 CALM      29.99F
WAUSAU         PTCLDY    54  38  54 CALM      29.98S
WIS RAPIDS     MOCLDY    47  35  63 CALM      30.01F
MARSHFIELD     MOCLDY    51  34  52 W5        29.99F
RICE LAKE      CLEAR     55  33  44 SW3       30.00F
$$

...NORTHEAST IOWA...


CITY           SKY/WX    TMP DP  RH WIND       PRES   REMARKS
WATERLOO       CLEAR     50  40  68 CALM      30.04R
DUBUQUE        MOCLDY    48  41  76 W3        30.03S
DECORAH        PTCLDY    55  37  50 CALM      30.03R
MASON CITY     PTCLDY    50  42  74 S5        30.05R
CHARLES CITY   PTCLDY    55  39  54 S5        30.04S
OELWEIN        CLEAR     50  43  76 SW8       30.05R
$$

...ELSEWHERE IN IOWA...


CITY           SKY/WX    TMP DP  RH WIND       PRES   REMARKS
DES MOINES     PTCLDY    54  42  64 S5        30.06R
IOWA CITY      CLOUDY    49  44  83 CALM      30.05S
FORT DODGE     CLEAR     46  37  71 CALM      30.05R
MARSHALLTOWN   CLEAR     48  42  80 SW5       30.05R
CEDAR RAPIDS   CLOUDY    47  44  90 W6        30.04R
$$

...NORTHERN ILLINOIS...


CITY           SKY/WX    TMP DP  RH WIND       PRES   REMARKS
CHICAGO-OHARE  PTCLDY    48  34  58 NE5       30.02R
CHICAGO-MIDWAY PTCLDY    50  33  52 NE7       30.02S
MOLINE         CLOUDY    53  46  77 CALM      30.02S
ROCKFORD       CLEAR     49  38  65 CALM      30.05R
PEORIA         CLOUDY    53  45  74 NW5       30.02R
$$

NOTE: "FAIR" INDICATES FEW OR NO CLOUDS BELOW 12,000 FEET WITH NO
SIGNIFICANT WEATHER AND/OR OBSTRUCTIONS TO VISIBILITY. WIND
SPEEDS ARE IN MILES-PER-HOUR.




USA.gov is the U.S. government's official web portal to all federal, state and local government web resources and services.